Regional Weather Roundup
Issued by NWS

Home | Current Version | Previous Version | Graphics & Text | Print | Product List | Glossary Off
Versions: 1 2 3 4 5 6 7 8 9 10 11 12 13 14 15 16 17 18 19 20 21 22 23 24 25 26 27 28 29 30 31 32 33 34 35 36 37 38 39 40 41 42 43 44 45 46 47 48 49 50

000
ASUS43 KTOP 282259
RWRKS

WEATHER ROUNDUP FOR KANSAS
NATIONAL WEATHER SERVICE GOODLAND KS
500 PM CST SUN DEC 28 2014

NOTE:  "FAIR" INDICATES FEW OR NO CLOUDS BELOW 12,000 FEET WITH NO
SIGNIFICANT WEATHER AND/OR OBSTRUCTIONS TO VISIBILITY.

KSZ001>006-013>018-027>032-041>047-290000-
NORTHWEST KANSAS

CITY           SKY/WX    TMP DP  RH WIND       PRES   REMARKS
GOODLAND       PTCLDY    29  23  78 SE12      29.92S WCI  19
HAYS           CLOUDY    37  19  48 SE7       30.02S
HILL CITY      CLOUDY    34  25  69 E5        30.01R
RUSSELL        CLOUDY    37  23  56 SE5       30.02R
$$

KSZ061>065-074>080-084>089-290000-
SOUTHWEST KANSAS

CITY           SKY/WX    TMP DP  RH WIND       PRES   REMARKS
DODGE CITY     PTCLDY    40  15  36 S13       29.97R WCI  32
ELKHART          N/A     39  18  43 SE8         N/A
GARDEN CITY    PTCLDY    36  19  50 S9        29.94S
GREAT BEND     PTCLDY    39  19  45 S9        30.03S
LIBERAL        CLEAR     37  16  41 S6        29.96S
$$

KSZ066>073-081>083-090>101-290000-
SOUTHEAST KANSAS

CITY           SKY/WX    TMP DP  RH WIND       PRES   REMARKS
CHANUTE        CLEAR     35  18  49 S6        30.14S
COFFEYVILLE    CLEAR     37  21  52 SE5       30.16S
HUTCHINSON     CLEAR     37  20  50 SE8       30.07S
MEDICINE LODGE   N/A     39  19  44 SE9       30.05S
NEWTON         CLEAR     37  16  41 S5        30.10S
PARSONS        CLEAR     38  19  46 S3        30.16S
WICHITA INTL   CLEAR     38  19  46 S8        30.09R
WICHITA JABRA  CLEAR     37  18  46 S7        30.09S
WINFIELD       CLEAR     37  19  48 SE6       30.11S
$$

KSZ007>012-019>026-033>040-048>060-102>105-290000-
NORTHEAST KANSAS

CITY           SKY/WX    TMP DP  RH WIND       PRES   REMARKS
CONCORDIA      MOCLDY    36  22  56 CALM      30.08R
EMPORIA        MOCLDY    35  17  47 SE7       30.12R
LAWRENCE       MOCLDY    34  23  64 SE6       30.15R
MANHATTAN      CLEAR     37  20  50 S6        30.11R
OLATHE IND     MOCLDY    34  20  56 S3        30.15R
OLATHE EXE     MOCLDY    35  20  54 S5        30.14R
SALINA         CLEAR     39  21  48 SE7       30.08F
TOPEKA BILLARD MOCLDY    38  21  50 S6        30.14R
TOPEKA FORBES  MOCLDY    37  20  50 S6        30.13R
$$


USA.gov is the U.S. government's official web portal to all federal, state and local government web resources and services.